﻿測定場所 (Monitoring sites),日付 (Measurement date),時間 (Measurement time),線量率 最大値 (max) μGy/h,線量率 最小値 (min) μGy/h,線量率 平均値 (average) μGy/h,
足立 (Adachi),2014-05-04,23:01～24:00,0.0491,0.0418,0.0457,
足立 (Adachi),2014-05-04,22:01～23:00,0.0493,0.0434,0.0458,
足立 (Adachi),2014-05-04,21:01～22:00,0.0483,0.0425,0.0455,
足立 (Adachi),2014-05-04,20:01～21:00,0.0488,0.0420,0.0456,
足立 (Adachi),2014-05-04,19:01～20:00,0.0481,0.0428,0.0456,
足立 (Adachi),2014-05-04,18:01～19:00,0.0482,0.0428,0.0454,
足立 (Adachi),2014-05-04,17:01～18:00,0.0485,0.0404,0.0452,
足立 (Adachi),2014-05-04,16:01～17:00,0.0487,0.0420,0.0454,
足立 (Adachi),2014-05-04,15:01～16:00,0.0492,0.0436,0.0455,
足立 (Adachi),2014-05-04,14:01～15:00,0.0485,0.0424,0.0457,
足立 (Adachi),2014-05-04,13:01～14:00,0.0491,0.0426,0.0459,
足立 (Adachi),2014-05-04,12:01～13:00,0.0486,0.0424,0.0456,
足立 (Adachi),2014-05-04,11:01～12:00,0.0485,0.0427,0.0455,
足立 (Adachi),2014-05-04,10:01～11:00,0.0493,0.0422,0.0456,
足立 (Adachi),2014-05-04,09:01～10:00,0.0495,0.0422,0.0457,
足立 (Adachi),2014-05-04,08:01～09:00,0.0500,0.0431,0.0459,
足立 (Adachi),2014-05-04,07:01～08:00,0.0480,0.0421,0.0455,
足立 (Adachi),2014-05-04,06:01～07:00,0.0482,0.0421,0.0451,
足立 (Adachi),2014-05-04,05:01～06:00,0.0475,0.0427,0.0453,
足立 (Adachi),2014-05-04,04:01～05:00,0.0498,0.0424,0.0453,
足立 (Adachi),2014-05-04,03:01～04:00,0.0475,0.0422,0.0452,
足立 (Adachi),2014-05-04,02:01～03:00,0.0499,0.0421,0.0453,
足立 (Adachi),2014-05-04,01:01～02:00,0.0482,0.0426,0.0453,
足立 (Adachi),2014-05-04,00:01～01:00,0.0492,0.0435,0.0457,
足立 (Adachi),2014-05-03,23:01～24:00,0.0485,0.0433,0.0458,
足立 (Adachi),2014-05-03,22:01～23:00,0.0485,0.0437,0.0460,
足立 (Adachi),2014-05-03,21:01～22:00,0.0488,0.0426,0.0458,
足立 (Adachi),2014-05-03,20:01～21:00,0.0498,0.0419,0.0458,
足立 (Adachi),2014-05-03,19:01～20:00,0.0491,0.0422,0.0458,
足立 (Adachi),2014-05-03,18:01～19:00,0.0511,0.0428,0.0458,
足立 (Adachi),2014-05-03,17:01～18:00,0.0485,0.0405,0.0455,
足立 (Adachi),2014-05-03,16:01～17:00,0.0485,0.0428,0.0460,
足立 (Adachi),2014-05-03,15:01～16:00,0.0494,0.0429,0.0458,
足立 (Adachi),2014-05-03,14:01～15:00,0.0482,0.0430,0.0455,
足立 (Adachi),2014-05-03,13:01～14:00,0.0489,0.0423,0.0453,
足立 (Adachi),2014-05-03,12:01～13:00,0.0483,0.0426,0.0455,
足立 (Adachi),2014-05-03,11:01～12:00,0.0486,0.0421,0.0453,
足立 (Adachi),2014-05-03,10:01～11:00,0.0484,0.0418,0.0454,
足立 (Adachi),2014-05-03,09:01～10:00,0.0489,0.0425,0.0458,
足立 (Adachi),2014-05-03,08:01～09:00,0.0493,0.0426,0.0460,
足立 (Adachi),2014-05-03,07:01～08:00,0.0501,0.0432,0.0464,
足立 (Adachi),2014-05-03,06:01～07:00,0.0482,0.0420,0.0457,
足立 (Adachi),2014-05-03,05:01～06:00,0.0483,0.0419,0.0457,
足立 (Adachi),2014-05-03,04:01～05:00,0.0489,0.0421,0.0460,
足立 (Adachi),2014-05-03,03:01～04:00,0.0484,0.0421,0.0453,
足立 (Adachi),2014-05-03,02:01～03:00,0.0481,0.0420,0.0450,
足立 (Adachi),2014-05-03,01:01～02:00,0.0486,0.0416,0.0452,
足立 (Adachi),2014-05-03,00:01～01:00,0.0490,0.0418,0.0449,
足立 (Adachi),2014-05-02,23:01～24:00,0.0470,0.0421,0.0444,
足立 (Adachi),2014-05-02,22:01～23:00,0.0474,0.0412,0.0443,
足立 (Adachi),2014-05-02,21:01～22:00,0.0482,0.0415,0.0446,
足立 (Adachi),2014-05-02,20:01～21:00,0.0475,0.0417,0.0444,
足立 (Adachi),2014-05-02,19:01～20:00,0.0474,0.0411,0.0444,
足立 (Adachi),2014-05-02,18:01～19:00,0.0469,0.0412,0.0442,
足立 (Adachi),2014-05-02,17:01～18:00,0.0480,0.0419,0.0445,
足立 (Adachi),2014-05-02,16:01～17:00,0.0470,0.0408,0.0446,
足立 (Adachi),2014-05-02,15:01～16:00,0.0474,0.0417,0.0442,
足立 (Adachi),2014-05-02,14:01～15:00,0.0472,0.0409,0.0442,
足立 (Adachi),2014-05-02,13:01～14:00,0.0474,0.0395,0.0440,
足立 (Adachi),2014-05-02,12:01～13:00,0.0469,0.0413,0.0438,
足立 (Adachi),2014-05-02,11:01～12:00,0.0472,0.0410,0.0440,
足立 (Adachi),2014-05-02,10:01～11:00,0.0470,0.0416,0.0443,
足立 (Adachi),2014-05-02,09:01～10:00,0.0483,0.0416,0.0443,
足立 (Adachi),2014-05-02,08:01～09:00,0.0485,0.0409,0.0440,
足立 (Adachi),2014-05-02,07:01～08:00,0.0464,0.0406,0.0435,
足立 (Adachi),2014-05-02,06:01～07:00,0.0474,0.0411,0.0441,
足立 (Adachi),2014-05-02,05:01～06:00,0.0484,0.0407,0.0441,
足立 (Adachi),2014-05-02,04:01～05:00,0.0474,0.0412,0.0439,
足立 (Adachi),2014-05-02,03:01～04:00,0.0474,0.0419,0.0444,
足立 (Adachi),2014-05-02,02:01～03:00,0.0467,0.0413,0.0440,
足立 (Adachi),2014-05-02,01:01～02:00,0.0482,0.0418,0.0445,
足立 (Adachi),2014-05-02,00:01～01:00,0.0481,0.0408,0.0442,
足立 (Adachi),2014-05-01,23:01～24:00,0.0475,0.0413,0.0443,
足立 (Adachi),2014-05-01,22:01～23:00,0.0470,0.0413,0.0441,
足立 (Adachi),2014-05-01,21:01～22:00,0.0480,0.0413,0.0442,
足立 (Adachi),2014-05-01,20:01～21:00,0.0486,0.0412,0.0442,
足立 (Adachi),2014-05-01,19:01～20:00,0.0465,0.0407,0.0440,
足立 (Adachi),2014-05-01,18:01～19:00,0.0475,0.0414,0.0445,
足立 (Adachi),2014-05-01,17:01～18:00,0.0467,0.0413,0.0438,
足立 (Adachi),2014-05-01,16:01～17:00,0.0475,0.0396,0.0439,
足立 (Adachi),2014-05-01,15:01～16:00,0.0460,0.0401,0.0436,
足立 (Adachi),2014-05-01,14:01～15:00,0.0477,0.0399,0.0435,
足立 (Adachi),2014-05-01,13:01～14:00,0.0464,0.0410,0.0435,
足立 (Adachi),2014-05-01,12:01～13:00,0.0460,0.0406,0.0432,
足立 (Adachi),2014-05-01,11:01～12:00,0.0465,0.0409,0.0437,
足立 (Adachi),2014-05-01,10:01～11:00,0.0473,0.0401,0.0433,
足立 (Adachi),2014-05-01,09:01～10:00,0.0459,0.0396,0.0423,
足立 (Adachi),2014-05-01,08:01～09:00,0.0450,0.0407,0.0429,
足立 (Adachi),2014-05-01,07:01～08:00,0.0482,0.0412,0.0442,
足立 (Adachi),2014-05-01,06:01～07:00,0.0478,0.0424,0.0457,
足立 (Adachi),2014-05-01,05:01～06:00,0.0477,0.0403,0.0442,
足立 (Adachi),2014-05-01,04:01～05:00,0.0469,0.0399,0.0438,
足立 (Adachi),2014-05-01,03:01～04:00,0.0495,0.0414,0.0456,
足立 (Adachi),2014-05-01,02:01～03:00,0.0492,0.0409,0.0456,
足立 (Adachi),2014-05-01,01:01～02:00,0.0481,0.0410,0.0449,
足立 (Adachi),2014-05-01,00:01～01:00,0.0482,0.0414,0.0449,
足立 (Adachi),2014-04-30,23:01～24:00,0.0507,0.0427,0.0472,
足立 (Adachi),2014-04-30,22:01～23:00,0.0496,0.0415,0.0455,
足立 (Adachi),2014-04-30,21:01～22:00,0.0467,0.0407,0.0440,
足立 (Adachi),2014-04-30,20:01～21:00,0.0473,0.0415,0.0443,
足立 (Adachi),2014-04-30,19:01～20:00,0.0482,0.0411,0.0448,
足立 (Adachi),2014-04-30,18:01～19:00,0.0463,0.0401,0.0438,
足立 (Adachi),2014-04-30,17:01～18:00,0.0485,0.0412,0.0445,
足立 (Adachi),2014-04-30,16:01～17:00,0.0495,0.0426,0.0460,
足立 (Adachi),2014-04-30,15:01～16:00,0.0503,0.0436,0.0464,
足立 (Adachi),2014-04-30,14:01～15:00,0.0509,0.0439,0.0473,
足立 (Adachi),2014-04-30,13:01～14:00,0.0506,0.0430,0.0467,
足立 (Adachi),2014-04-30,12:01～13:00,0.0491,0.0430,0.0461,
足立 (Adachi),2014-04-30,11:01～12:00,0.0496,0.0434,0.0462,
足立 (Adachi),2014-04-30,10:01～11:00,0.0490,0.0433,0.0458,
足立 (Adachi),2014-04-30,09:01～10:00,0.0486,0.0419,0.0460,
足立 (Adachi),2014-04-30,08:01～09:00,0.0501,0.0435,0.0465,
足立 (Adachi),2014-04-30,07:01～08:00,0.0493,0.0431,0.0464,
足立 (Adachi),2014-04-30,06:01～07:00,0.0502,0.0448,0.0473,
足立 (Adachi),2014-04-30,05:01～06:00,0.0503,0.0449,0.0480,
足立 (Adachi),2014-04-30,04:01～05:00,0.0533,0.0461,0.0501,
足立 (Adachi),2014-04-30,03:01～04:00,0.0561,0.0479,0.0519,
足立 (Adachi),2014-04-30,02:01～03:00,0.0555,0.0486,0.0520,
足立 (Adachi),2014-04-30,01:01～02:00,0.0536,0.0454,0.0492,
足立 (Adachi),2014-04-30,00:01～01:00,0.0530,0.0457,0.0491,
足立 (Adachi),2014-04-29,23:01～24:00,0.0522,0.0456,0.0488,
足立 (Adachi),2014-04-29,22:01～23:00,0.0530,0.0459,0.0500,
足立 (Adachi),2014-04-29,21:01～22:00,0.0528,0.0449,0.0490,
足立 (Adachi),2014-04-29,20:01～21:00,0.0501,0.0444,0.0474,
足立 (Adachi),2014-04-29,19:01～20:00,0.0505,0.0445,0.0472,
足立 (Adachi),2014-04-29,18:01～19:00,0.0502,0.0438,0.0469,
足立 (Adachi),2014-04-29,17:01～18:00,0.0506,0.0429,0.0471,
足立 (Adachi),2014-04-29,16:01～17:00,0.0500,0.0453,0.0472,
足立 (Adachi),2014-04-29,15:01～16:00,0.0506,0.0446,0.0473,
足立 (Adachi),2014-04-29,14:01～15:00,0.0504,0.0441,0.0472,
足立 (Adachi),2014-04-29,13:01～14:00,0.0513,0.0445,0.0470,
足立 (Adachi),2014-04-29,12:01～13:00,0.0502,0.0436,0.0471,
足立 (Adachi),2014-04-29,11:01～12:00,0.0508,0.0443,0.0472,
足立 (Adachi),2014-04-29,10:01～11:00,0.0501,0.0440,0.0472,
足立 (Adachi),2014-04-29,09:01～10:00,0.0502,0.0439,0.0475,
足立 (Adachi),2014-04-29,08:01～09:00,0.0501,0.0441,0.0473,
足立 (Adachi),2014-04-29,07:01～08:00,0.0510,0.0444,0.0480,
足立 (Adachi),2014-04-29,06:01～07:00,0.0512,0.0444,0.0476,
足立 (Adachi),2014-04-29,05:01～06:00,0.0504,0.0448,0.0474,
足立 (Adachi),2014-04-29,04:01～05:00,0.0504,0.0442,0.0477,
足立 (Adachi),2014-04-29,03:01～04:00,0.0529,0.0436,0.0475,
足立 (Adachi),2014-04-29,02:01～03:00,0.0516,0.0447,0.0475,
足立 (Adachi),2014-04-29,01:01～02:00,0.0500,0.0448,0.0474,
足立 (Adachi),2014-04-29,00:01～01:00,0.0516,0.0440,0.0471,
足立 (Adachi),2014-04-28,23:01～24:00,0.0509,0.0435,0.0470,
足立 (Adachi),2014-04-28,22:01～23:00,0.0498,0.0432,0.0469,
足立 (Adachi),2014-04-28,21:01～22:00,0.0499,0.0438,0.0465,
足立 (Adachi),2014-04-28,20:01～21:00,0.0500,0.0432,0.0471,
足立 (Adachi),2014-04-28,19:01～20:00,0.0514,0.0421,0.0466,
足立 (Adachi),2014-04-28,18:01～19:00,0.0495,0.0433,0.0468,
足立 (Adachi),2014-04-28,17:01～18:00,0.0495,0.0427,0.0468,
足立 (Adachi),2014-04-28,16:01～17:00,0.0507,0.0438,0.0466,
足立 (Adachi),2014-04-28,15:01～16:00,0.0500,0.0445,0.0468,
足立 (Adachi),2014-04-28,14:01～15:00,0.0505,0.0430,0.0464,
足立 (Adachi),2014-04-28,13:01～14:00,0.0493,0.0428,0.0460,
足立 (Adachi),2014-04-28,12:01～13:00,0.0504,0.0420,0.0457,
足立 (Adachi),2014-04-28,11:01～12:00,0.0499,0.0437,0.0467,
足立 (Adachi),2014-04-28,10:01～11:00,0.0509,0.0442,0.0470,
足立 (Adachi),2014-04-28,09:01～10:00,0.0503,0.0440,0.0469,
足立 (Adachi),2014-04-28,08:01～09:00,0.0499,0.0432,0.0464,
足立 (Adachi),2014-04-28,07:01～08:00,0.0491,0.0426,0.0463,
足立 (Adachi),2014-04-28,06:01～07:00,0.0499,0.0436,0.0465,
足立 (Adachi),2014-04-28,05:01～06:00,0.0699,0.0431,0.0469,
足立 (Adachi),2014-04-28,04:01～05:00,0.0496,0.0436,0.0466,
足立 (Adachi),2014-04-28,03:01～04:00,0.0487,0.0430,0.0464,
足立 (Adachi),2014-04-28,02:01～03:00,0.0498,0.0441,0.0469,
足立 (Adachi),2014-04-28,01:01～02:00,0.0510,0.0439,0.0465,
足立 (Adachi),2014-04-28,00:01～01:00,0.0495,0.0426,0.0467,
